Time,TemperatureF,DewpointF,PressureIn,WindDirection,WindDirectionDegrees,WindSpeedMPH,WindSpeedGustMPH,Humidity,HourlyPrecipIn,Conditions,Clouds,dailyrainin,SoftwareType,DateUTC
2013-03-21 00:09:00,12.6,2.8,29.99,NNW,342,6.0,13.0,64,0.00,,---,0.00,VWS V14.01,2013-03-21 05:09:00,
2013-03-21 00:39:00,12.1,2.3,29.99,NW,323,6.0,15.0,64,0.00,,---,0.00,VWS V14.01,2013-03-21 05:39:00,
2013-03-21 01:09:00,12.1,2.6,29.98,NNW,346,5.0,13.0,65,0.00,,---,0.00,VWS V14.01,2013-03-21 06:09:00,
2013-03-21 01:39:00,11.7,2.2,29.99,North,355,0.0,12.0,65,0.00,,---,0.00,VWS V14.01,2013-03-21 06:39:00,
2013-03-21 02:09:00,11.1,2.3,29.99,NW,324,9.0,10.0,67,0.00,,---,0.00,VWS V14.01,2013-03-21 07:09:00,
2013-03-21 02:39:00,10.7,2.2,29.98,NNW,332,0.0,10.0,68,0.00,,---,0.00,VWS V14.01,2013-03-21 07:39:00,
2013-03-21 03:09:00,10.5,2.0,29.98,NNW,342,0.0,11.0,68,0.00,,---,0.00,VWS V14.01,2013-03-21 08:09:00,
2013-03-21 03:39:00,9.9,2.1,29.97,NNW,335,0.0,9.0,70,0.00,,---,0.00,VWS V14.01,2013-03-21 08:39:00,
2013-03-21 04:09:00,9.3,1.8,29.96,NNW,344,5.0,9.0,71,0.00,,---,0.00,VWS V14.01,2013-03-21 09:09:00,
2013-03-21 04:39:00,8.5,1.6,29.97,NNW,331,0.0,7.0,73,0.00,,---,0.00,VWS V14.01,2013-03-21 09:39:00,
2013-03-21 05:09:00,8.3,1.5,29.97,NNW,337,0.0,6.0,73,0.00,,---,0.00,VWS V14.01,2013-03-21 10:09:00,
2013-03-21 05:39:00,8.3,1.7,29.97,NW,306,0.0,0.0,74,0.00,,---,0.00,VWS V14.01,2013-03-21 10:39:00,
2013-03-21 06:09:00,8.2,1.6,29.98,NNW,329,0.0,5.0,74,0.00,,---,0.00,VWS V14.01,2013-03-21 11:09:00,
2013-03-21 06:39:00,9.0,2.1,29.98,NW,323,6.0,9.0,73,0.00,,---,0.00,VWS V14.01,2013-03-21 11:39:00,
2013-03-21 07:09:00,9.0,2.1,29.98,NNW,332,6.0,10.0,73,0.00,,---,0.00,VWS V14.01,2013-03-21 12:09:00,
2013-03-21 07:39:00,9.4,2.5,29.98,NNW,333,4.0,11.0,73,0.00,,---,0.00,VWS V14.01,2013-03-21 12:39:00,
2013-03-21 08:09:00,10.7,3.5,29.98,NW,319,3.0,11.0,72,0.00,,---,0.00,VWS V14.01,2013-03-21 13:09:00,
2013-03-21 08:39:00,12.7,4.8,29.97,NNW,330,8.0,12.0,70,0.00,,---,0.00,VWS V14.01,2013-03-21 13:39:00,
2013-03-21 09:09:00,14.8,6.5,29.97,NW,323,3.0,11.0,69,0.00,,---,0.00,VWS V14.01,2013-03-21 14:09:00,
2013-03-21 09:39:00,16.4,7.7,29.98,NNW,328,6.0,15.0,68,0.00,,---,0.00,VWS V14.01,2013-03-21 14:39:00,
2013-03-21 10:09:00,17.2,7.8,29.99,North,5,3.0,14.0,66,0.00,,---,0.00,VWS V14.01,2013-03-21 15:09:00,
2013-03-21 10:39:00,18.4,9.0,30.00,NW,323,11.0,14.0,66,0.00,,---,0.00,VWS V14.01,2013-03-21 15:39:00,
2013-03-21 11:09:00,19.5,9.7,29.99,North,355,10.0,16.0,65,0.00,,---,0.00,VWS V14.01,2013-03-21 16:09:00,
2013-03-21 11:39:00,20.8,10.2,29.99,NW,324,11.0,16.0,63,0.00,,---,0.00,VWS V14.01,2013-03-21 16:39:00,
2013-03-21 12:09:00,21.8,10.8,29.99,North,360,4.0,17.0,62,0.00,,---,0.00,VWS V14.01,2013-03-21 17:09:00,
2013-03-21 12:39:00,23.1,11.3,30.00,NNW,336,5.0,17.0,60,0.00,,---,0.00,VWS V14.01,2013-03-21 17:39:00,
2013-03-21 13:09:00,25.2,12.1,29.99,NNE,13,0.0,14.0,57,0.00,,---,0.00,VWS V14.01,2013-03-21 18:09:00,
2013-03-21 13:39:00,24.5,11.9,29.99,North,9,0.0,16.0,58,0.00,,---,0.00,VWS V14.01,2013-03-21 18:39:00,
2013-03-21 14:09:00,25.1,12.4,29.98,North,355,0.0,14.0,58,0.00,,---,0.00,VWS V14.01,2013-03-21 19:09:00,
2013-03-21 14:39:00,25.4,12.7,29.97,NNW,337,5.0,16.0,58,0.00,,---,0.00,VWS V14.01,2013-03-21 19:39:00,
2013-03-21 15:09:00,25.8,12.7,29.97,NNW,345,8.0,15.0,57,0.00,,---,0.00,VWS V14.01,2013-03-21 20:09:00,
2013-03-21 15:39:00,25.9,12.4,29.97,NW,321,7.0,16.0,56,0.00,,---,0.00,VWS V14.01,2013-03-21 20:39:00,
2013-03-21 16:09:00,26.5,12.5,29.96,NNW,335,10.0,17.0,55,0.00,,---,0.00,VWS V14.01,2013-03-21 21:09:00,
2013-03-21 16:39:00,26.4,11.6,29.96,North,355,8.0,16.0,53,0.00,,---,0.00,VWS V14.01,2013-03-21 21:39:00,
2013-03-21 17:09:00,26.7,12.3,29.96,WNW,296,2.0,14.0,54,0.00,,---,0.00,VWS V14.01,2013-03-21 22:09:00,
2013-03-21 17:39:00,26.2,11.4,29.96,NW,306,6.0,13.0,53,0.00,,---,0.00,VWS V14.01,2013-03-21 22:39:00,
2013-03-21 18:09:00,25.8,11.9,29.96,NW,311,10.0,14.0,55,0.00,,---,0.00,VWS V14.01,2013-03-21 23:09:00,
2013-03-21 18:39:00,25.2,11.7,29.96,NW,320,1.0,10.0,56,0.00,,---,0.00,VWS V14.01,2013-03-21 23:39:00,
2013-03-21 19:09:00,24.3,11.3,29.97,NNW,347,0.0,7.0,57,0.00,,---,0.00,VWS V14.01,2013-03-22 00:09:00,
2013-03-21 19:39:00,22.9,11.1,29.97,NNW,341,0.0,1.0,60,0.00,,---,0.00,VWS V14.01,2013-03-22 00:39:00,
2013-03-21 20:09:00,22.1,11.1,29.97,NNW,341,0.0,0.0,62,0.00,,---,0.00,VWS V14.01,2013-03-22 01:09:00,
2013-03-21 20:39:00,21.6,10.6,29.98,NNW,341,0.0,0.0,62,0.00,,---,0.00,VWS V14.01,2013-03-22 01:39:00,
2013-03-21 21:09:00,21.1,10.1,29.98,NNW,341,0.0,0.0,62,0.00,,---,0.00,VWS V14.01,2013-03-22 02:09:00,
2013-03-21 21:39:00,19.7,9.9,29.99,NNW,341,0.0,0.0,65,0.00,,---,0.00,VWS V14.01,2013-03-22 02:39:00,
2013-03-21 22:09:00,18.0,9.2,29.99,NNW,341,0.0,0.0,68,0.00,,---,0.00,VWS V14.01,2013-03-22 03:09:00,
2013-03-21 22:39:00,15.9,8.8,29.99,NNW,341,0.0,0.0,73,0.00,,---,0.00,VWS V14.01,2013-03-22 03:39:00,
2013-03-21 23:09:00,14.4,8.2,29.99,NNW,341,0.0,0.0,76,0.00,,---,0.00,VWS V14.01,2013-03-22 04:09:00,
2013-03-21 23:39:00,15.1,9.2,29.99,NNW,341,0.0,0.0,77,0.00,,---,0.00,VWS V14.01,2013-03-22 04:39:00,